Location: Invercargill
(46.4000°S, 168.3500°E)
Time: 19:56:49
(UTC+13:00)

Elektron 1 - Pass Details

Date: 24 January 2019
Orbit: 410 x 6307 km, 60.9° (Epoch: 20 February)

Event Time Altitude Azimuth Distance (km) Brightness Sun altitude
Rises 22:20:44 0° 319° (NW) 3,995 8.7 -8.0°
Reaches altitude 10° 22:24:10 10° 319° (NW) 2,447 7.6 -8.5°
Maximum altitude 22:29:03 86° 47° (NE) 539 4.2 -9.1°
Drops below altitude 10° 22:32:08 10° 135° (SE) 1,557 6.6 -9.5°
Sets 22:33:53 0° 136° (SE) 2,388 7.6 -9.8°
